Content
SEND FEEDBACK

Daily
Averages
Monthly
Summary
United States of America

CHICAGO, ILLINOIS


Home > North America > United States > Illinois
Elevation: 674 feet     Latitude: 41 59N     Longitude: 087 54W

WEATHER
 
SELECT A DAY
Number of Records: 194,883;   Date Range: 7/8/95 - 7/29/14
 
SHARE

PRINT THIS DATA

[ ← Previous Day ]
WEATHER ALMANAC - JUNE 17, 2014
[ Next Day → ]
[ °C ]   °F
Weather ElementAverageHighLow
Temperature80.6 °F90 °F (4:52 pm)75 °F (10:52 pm)
Dewpoint65.5 °F69.1 °F (2:52 am)60.1 °F (1:52 pm)
Humidity61 %72 % (2:52 am)41 % (1:52 pm)
Barometer29.87 in29.93 in (9:52 pm)29.79 in (8:52 am)
Wind Speed11 mph21.9 mph (4:52 am)
Wind Gust36.8 mph (6:36 am)
Weather ElementAverage
Visibility10 mi
Wind DirectionSSW (186.8 °)

Weather ElementTotal
Precipitation0.01 in
Cooling Degree Days17.5 (Base 65)
Growing Degree Days32.5 (Base 50)
Averaged from 25 records on June 17, 2014
WEATHER CONDITIONS BREAKOUT
WIND DIRECTION BREAKOUT
WEATHER BY HOUR - JUNE 17, 2014
[ °C ]   °F
Local TimeTemperatureDewpointHumidityBarometerVisibilityWind DirectionWind SpeedGust SpeedPrecipitationEventsConditions
1:52 AM81.0 °F68.0 °F65 %29.89 in10.0 miSouth (190°)13.8 mphPartly Cloudy
2:52 AM79.0 °F69.1 °F72 %29.88 in10.0 miSouth (190°)11.5 mph0.01 inRainLight Rain
3:52 AM79.0 °F69.1 °F72 %29.84 in10.0 miSouth (180°)13.8 mph24.2 mph0.00 inClear
4:52 AM79.0 °F68.0 °F69 %29.82 in10.0 miSouth (190°)21.9 mph29.9 mph0.00 inPartly Cloudy
5:52 AM79.0 °F68.0 °F69 %29.83 in10.0 miSSW (200°)18.4 mph26.5 mphMostly Cloudy
6:36 AM79.0 °F68.0 °F69 %29.85 in10.0 miSSW (210°)16.1 mph36.8 mphOvercast
6:52 AM79.0 °F69.1 °F72 %29.83 in10.0 miSSW (210°)12.7 mph24.2 mphMostly Cloudy
7:52 AM79.0 °F69.1 °F72 %29.83 in10.0 miSSW (200°)17.3 mph27.6 mphMostly Cloudy
8:00 AM79.0 °F69.1 °F72 %29.84 in10.0 miSSW (210°)19.6 mph26.5 mphPartly Cloudy
8:52 AM79.0 °F66.9 °F66 %29.79 in10.0 miSouth (190°)19.6 mph33.4 mphClear
9:52 AM79.0 °F66.0 °F64 %29.81 in10.0 miWSW (240°)11.5 mph20.7 mphClear
10:52 AM80.1 °F64.0 °F58 %29.87 in10.0 miWest (270°)11.5 mphClear
11:52 AM81.0 °F64.9 °F58 %29.89 in10.0 miWest (280°)10.4 mphClear
12:52 PM82.9 °F63.0 °F51 %29.89 in10.0 miSW (220°)10.4 mph20.7 mphClear
1:52 PM86.0 °F60.1 °F41 %29.88 in10.0 miWSW (240°)11.5 mphClear
4:52 PM90.0 °F64.0 °F42 %29.88 in10.0 miWest (280°)8.1 mphClear
5:52 PM90.0 °F64.9 °F43 %29.87 in10.0 miWSW (250°)6.9 mphClear
6:52 PM90.0 °F64.9 °F43 %29.88 in10.0 miSW (220°)5.8 mphClear
7:52 PM80.1 °F63.0 °F56 %29.89 in10.0 miEast (90°)6.9 mphScattered Clouds
8:20 PM79.0 °F63.0 °F58 %29.92 in10.0 miESE (120°)4.6 mphThunderstormMostly Cloudy
8:35 PM79.0 °F63.0 °F58 %29.92 in10.0 miESE (120°)4.6 mphOvercast
8:52 PM79.0 °F63.0 °F58 %29.91 in10.0 miESE (120°)5.8 mphMostly Cloudy
9:52 PM75.9 °F62.1 °F62 %29.93 in10.0 miSE (130°)6.9 mphPartly Cloudy
10:52 PM75.0 °F63.0 °F66 %29.93 in10.0 miESE (120°)4.6 mph0.00 inPartly Cloudy
11:52 PM75.0 °F64.0 °F69 %29.92 in10.0 miCalmPartly Cloudy
Hourly data recorded from KPWK, located miles away from Chicago, Illinois







STORIES FROM OUR PARTNERS